Terug naar catalogus

STARLINK-32595

ActiefCommunicatieVLEO
NORAD 62037·PAYLOAD·🇺🇸 United States

Gelanceerd Nov 21, 2024 vanaf Cape Canaveral Space Force Station

Loading…

Volgende Passages (komende 24 uur)

TLE

VersSource: CelesTrak SupGP

Epoch: Sep 15, 2026, 02:29 UTC

1 62037C 24216F   26258.10395833  .00001624  00000+0  58790-4 0  2581
2 62037  43.0003 273.8100 0001661 271.9245 349.8877 15.27588047    19

Volg STARLINK-32595 in realtime met AllMySat

Download on the App Store